TimeEDT,TemperatureF,Dew PointF,Humidity,Sea Level PressureIn,VisibilityMPH,Wind Direction,Wind SpeedMPH,Gust SpeedMPH,PrecipitationIn,Events,Conditions,WindDirDegrees,DateUTC
12:51 AM,57.0,55.0,93,30.18,8.0,Calm,Calm,-,N/A,,Clear,0,2012-10-05 04:51:00
1:51 AM,55.9,55.0,97,30.18,10.0,Calm,Calm,-,N/A,,Clear,0,2012-10-05 05:51:00
2:51 AM,55.9,54.0,93,30.18,10.0,Calm,Calm,-,N/A,,Clear,0,2012-10-05 06:51:00
3:51 AM,54.0,53.1,97,30.15,9.0,Calm,Calm,-,N/A,,Clear,0,2012-10-05 07:51:00
4:51 AM,54.0,53.1,97,30.15,9.0,Calm,Calm,-,N/A,,Clear,0,2012-10-05 08:51:00
5:51 AM,55.0,54.0,96,30.15,8.0,Calm,Calm,-,N/A,,Clear,0,2012-10-05 09:51:00
6:51 AM,54.0,53.1,97,30.16,9.0,South,3.5,-,N/A,,Clear,170,2012-10-05 10:51:00
7:51 AM,55.0,54.0,96,30.17,8.0,Calm,Calm,-,N/A,,Clear,0,2012-10-05 11:51:00
8:51 AM,57.0,55.9,96,30.17,9.0,Calm,Calm,-,N/A,,Clear,0,2012-10-05 12:51:00
9:51 AM,60.1,57.0,90,30.16,10.0,South,6.9,-,N/A,,Clear,180,2012-10-05 13:51:00
10:51 AM,63.0,57.9,84,30.14,10.0,Variable,5.8,-,N/A,,Clear,0,2012-10-05 14:51:00
11:51 AM,66.9,59.0,76,30.13,10.0,SSW,4.6,-,N/A,,Clear,210,2012-10-05 15:51:00
12:51 PM,75.0,59.0,57,30.11,10.0,SSW,5.8,-,N/A,,Scattered Clouds,200,2012-10-05 16:51:00
1:51 PM,75.9,55.9,50,30.09,10.0,WSW,6.9,-,N/A,,Scattered Clouds,240,2012-10-05 17:51:00
2:51 PM,77.0,54.0,45,30.05,10.0,Variable,4.6,-,N/A,,Scattered Clouds,0,2012-10-05 18:51:00
3:51 PM,78.1,55.0,45,30.02,10.0,Variable,6.9,-,N/A,,Mostly Cloudy,0,2012-10-05 19:51:00
3:55 PM,75.2,53.6,47,30.03,10.0,SW,9.2,-,N/A,,Scattered Clouds,230,2012-10-05 19:55:00
4:51 PM,75.9,54.0,46,30.00,10.0,SSW,8.1,-,N/A,,Scattered Clouds,210,2012-10-05 20:51:00
5:51 PM,75.0,54.0,48,29.99,10.0,SW,5.8,-,N/A,,Partly Cloudy,230,2012-10-05 21:51:00
6:51 PM,72.0,55.0,55,29.99,10.0,SSW,3.5,-,N/A,,Scattered Clouds,200,2012-10-05 22:51:00
7:51 PM,70.0,55.0,59,29.97,10.0,South,3.5,-,N/A,,Clear,180,2012-10-05 23:51:00
8:51 PM,66.0,57.0,73,29.97,10.0,Calm,Calm,-,N/A,,Clear,0,2012-10-06 00:51:00
9:51 PM,64.0,57.0,78,29.96,10.0,South,3.5,-,N/A,,Clear,190,2012-10-06 01:51:00
10:51 PM,62.1,57.0,84,29.94,10.0,SSW,3.5,-,N/A,,Clear,200,2012-10-06 02:51:00
11:51 PM,61.0,57.0,87,29.93,10.0,SSW,4.6,-,N/A,,Clear,210,2012-10-06 03:51:00